Starlink 5129

operational
NORAD ID: 54004 Int'l Des: 2022-125 Owner: SPXS Country: US Constellation: starlink
LEOCIRCULAR

Über Starlink 5129

Beschreibung wird geladen...

Live-Position

3D-Globus wird geladen...

Nächste Überflüge

Höhenverlauf

Altitude vs Time

uPlot chart will show altitude changes over time

Zweizeiliger Elementsatz

1 54004U 22125AS 25354.77534988 -.00000371 00000-0 -52265-5 0 9993
2 54004 53.2164 208.0655 0001507 93.4140 266.7024 15.08832168177550
Epoch: 20. Dez. 2025 • Age: 10 hours

Aktueller Status

Höhe 540.9 km
Geschwindigkeit 7.59 km/s
Subsatellitenpunkt -0.97°S, 53.45°E
Startdatum 5. Okt. 2022
Alter 3.2 years
Typ internet

Technische Details

Klassifizierung Payload
Masse 305.00 kg
Trockenmasse 290.00 kg
Gesamtmasse 305.00 kg
Länge 0.20 m
Durchmesser 2.80 m
Spannweite 9.00 m
Form Box + pan
Hersteller SPXS
Bus-Typ Starlink
Phasenstatus In Orbit
Besitzer/Staat SPXS/US

Große Konstellationen

Loading constellations...